DW2537 Weather Reports


Display with metric or nautical units.
time (UTC)temp
F
wind
direction
speed
MPH
gust
MPH
rain 1hr
in
rain 24hr
in
rain mn
in
humidity
%
barometer
mb
20260901231550 90 181 0.0 3.0 0.00 0.00 0.00 62 1013.3
20260901231020 91 226 0.0 3.0 0.00 0.00 0.00 61 1013.4
20260901230050 91 176 0.0 2.0 0.00 0.00 0.00 61 1013.5
20260901224550 92 0 0.0 5.0 0.00 0.00 0.00 60 1013.5
20260901224024 92 0 0.0 5.0 0.00 0.00 0.00 60 1013.6
20260901223524 92 0 0.0 4.0 0.00 0.00 0.00 59 1013.6
20260901223050 93 164 0.0 4.0 0.00 0.00 0.00 58 1013.5
20260901222519 93 98 0.0 4.0 0.00 0.00 0.00 58 1013.6
20260901222020 93 146 1.0 7.0 0.00 0.00 0.00 58 1013.6
20260901221548 93 263 2.0 8.0 0.00 0.00 0.00 57 1013.7
20260901221024 93 159 1.0 8.0 0.00 0.00 0.00 57 1013.8
20260901220528 94 173 0.0 8.0 0.00 0.00 0.00 57 1013.7
20260901220048 94 256 1.0 5.0 0.00 0.00 0.00 57 1013.7
20260901215523 94 192 0.0 6.0 0.00 0.00 0.00 56 1013.7
20260901215026 94 109 2.0 7.0 0.00 0.00 0.00 55 1013.7
20260901214542 94 124 2.0 7.0 0.00 0.00 0.00 53 1013.7
20260901214019 94 169 2.0 7.0 0.00 0.00 0.00 53 1013.8
20260901213523 94 142 1.0 7.0 0.00 0.00 0.00 55 1013.7
20260901213059 94 186 1.0 4.0 0.00 0.00 0.00 55 1013.7
20260901212524 95 0 1.0 5.0 0.00 0.00 0.00 54 1013.8
20260901212024 95 0 1.0 7.0 0.00 0.00 0.00 53 1013.8
20260901211540 95 19 1.0 7.0 0.00 0.00 0.00 54 1014.0
20260901211024 96 171 1.0 7.0 0.00 0.00 0.00 53 1013.9
20260901210523 96 174 2.0 7.0 0.00 0.00 0.00 53 1013.9
20260901210046 96 167 1.0 4.0 0.00 0.00 0.00 53 1013.9
20260901205524 97 188 1.0 5.0 0.00 0.00 0.00 50 1013.9
20260901205022 97 0 1.0 5.0 0.00 0.00 0.00 51 1013.9
20260901204542 97 0 0.0 4.0 0.00 0.00 0.00 50 1014.0
20260901204020 97 96 0.0 6.0 0.00 0.00 0.00 50 1014.0
20260901203524 97 186 1.0 8.0 0.00 0.00 0.00 46 1014.1
20260901203043 98 147 3.0 8.0 0.00 0.00 0.00 49 1014.1
20260901202526 98 281 1.0 7.0 0.00 0.00 0.00 49 1014.1
20260901202024 97 32 1.0 7.0 0.00 0.00 0.00 48 1014.1
20260901201541 98 71 2.0 5.0 0.00 0.00 0.00 49 1014.2
20260901201024 97 159 1.0 4.0 0.00 0.00 0.00 50 1014.2
20260901200524 97 167 1.0 4.0 0.00 0.00 0.00 49 1014.2
20260901200101 97 0 1.0 4.0 0.00 0.00 0.00 52 1014.3
20260901195521 97 0 1.0 4.0 0.00 0.00 0.00 50 1014.3
20260901195018 96 79 1.0 7.0 0.00 0.00 0.00 53 1014.5
20260901194555 96 0 1.0 7.0 0.00 0.00 0.00 53 1014.5
20260901194023 96 128 1.0 7.0 0.00 0.00 0.00 52 1014.5
20260901193524 95 113 1.0 5.0 0.00 0.00 0.00 52 1014.5
20260901193053 95 172 1.0 6.0 0.00 0.00 0.00 54 1014.6
20260901192524 95 0 1.0 6.0 0.00 0.00 0.00 52 1014.7
20260901192025 96 25 1.0 6.0 0.00 0.00 0.00 51 1014.7
20260901191542 96 267 1.0 4.0 0.00 0.00 0.00 52 1014.8
20260901191027 96 20 1.0 9.0 0.00 0.00 0.00 51 1014.8
20260901190526 96 287 2.0 9.0 0.00 0.00 0.00 52 1014.9
20260901190047 96 0 1.0 7.0 0.00 0.00 0.00 53 1014.9
20260901185524 96 125 2.0 7.0 0.00 0.00 0.00 48 1015.0
20260901185024 96 28 1.0 6.0 0.00 0.00 0.00 51 1015.1
20260901184547 96 42 1.0 4.0 0.00 0.00 0.00 53 1015.1
20260901184025 95 45 1.0 4.0 0.00 0.00 0.00 54 1015.0
20260901183524 95 10 1.0 9.0 0.00 0.00 0.00 56 1015.0
20260901183045 95 300 1.0 9.0 0.00 0.00 0.00 57 1015.1
20260901182524 95 47 1.0 7.0 0.00 0.00 0.00 56 1015.0
20260901182024 95 166 3.0 7.0 0.00 0.00 0.00 50 1015.0
20260901181541 95 277 1.0 9.0 0.00 0.00 0.00 56 1014.9
20260901181025 95 53 1.0 9.0 0.00 0.00 0.00 57 1015.0
20260901180525 95 198 1.0 5.0 0.00 0.00 0.00 56 1015.0
20260901180050 94 0 1.0 7.0 0.00 0.00 0.00 59 1015.1
20260901175524 94 273 2.0 7.0 0.00 0.00 0.00 59 1015.2
20260901175024 93 47 1.0 5.0 0.00 0.00 0.00 58 1015.2
20260901174558 93 283 1.0 5.0 0.00 0.00 0.00 56 1015.2
20260901174027 93 150 1.0 5.0 0.00 0.00 0.00 60 1015.4
20260901173525 92 0 1.0 6.0 0.00 0.00 0.00 62 1015.2
20260901173042 92 144 1.0 6.0 0.00 0.00 0.00 60 1015.3
20260901172523 92 93 2.0 6.0 0.00 0.00 0.00 61 1015.3
20260901172024 92 252 1.0 5.0 0.00 0.00 0.00 60 1015.3
20260901171541 92 114 1.0 5.0 0.00 0.00 0.00 60 1015.2
20260901171020 92 0 1.0 4.0 0.00 0.00 0.00 60 1015.3
20260901170526 91 0 0.0 5.0 0.00 0.00 0.00 63 1015.4
20260901170147 91 127 1.0 5.0 0.00 0.00 0.00 61 1015.6
20260901165525 91 276 1.0 7.0 0.00 0.00 0.00 65 1015.7
20260901165026 91 279 1.0 7.0 0.00 0.00 0.00 62 1015.7
20260901164548 91 181 1.0 7.0 0.00 0.00 0.00 63 1015.8
20260901164024 91 0 0.0 4.0 0.00 0.00 0.00 66 1015.7
20260901163524 91 0 0.0 4.0 0.00 0.00 0.00 60 1015.7
20260901163046 91 0 1.0 5.0 0.00 0.00 0.00 62 1015.8
20260901162522 91 153 1.0 5.0 0.00 0.00 0.00 63 1015.9
20260901162026 91 229 1.0 4.0 0.00 0.00 0.00 61 1016.0
20260901161550 91 92 1.0 7.0 0.00 0.00 0.00 61 1016.1
20260901161025 91 22 1.0 7.0 0.00 0.00 0.00 60 1016.1
20260901160524 92 279 2.0 7.0 0.00 0.00 0.00 59 1016.2
20260901160041 92 169 1.0 7.0 0.00 0.00 0.00 60 1016.0
20260901155524 91 261 2.0 6.0 0.00 0.00 0.00 61 1016.1
20260901155027 91 54 2.0 7.0 0.00 0.00 0.00 61 1016.2
20260901154559 91 0 1.0 7.0 0.00 0.00 0.00 61 1016.2
20260901154022 92 80 3.0 7.0 0.00 0.00 0.00 60 1016.2
20260901153524 92 20 1.0 5.0 0.00 0.00 0.00 63 1016.3
20260901153104 92 37 1.0 5.0 0.00 0.00 0.00 61 1016.4
20260901152524 91 60 2.0 7.0 0.00 0.00 0.00 61 1016.5
20260901152023 92 360 2.0 7.0 0.00 0.00 0.00 61 1016.5
20260901151546 91 155 1.0 7.0 0.00 0.00 0.00 62 1016.5
20260901151025 91 268 2.0 5.0 0.00 0.00 0.00 63 1016.4
20260901150525 90 75 1.0 7.0 0.00 0.00 0.00 63 1016.4
20260901150044 90 299 2.0 7.0 0.00 0.00 0.00 63 1016.4
20260901145524 90 20 1.0 5.0 0.00 0.00 0.00 63 1016.4
20260901145021 89 156 2.0 5.0 0.00 0.00 0.00 65 1016.5
20260901144547 89 0 1.0 5.0 0.00 0.00 0.00 70 1016.5
20260901144025 88 151 1.0 5.0 0.00 0.00 0.00 69 1016.5
20260901143525 87 261 1.0 4.0 0.00 0.00 0.00 69 1016.6
20260901143050 87 25 1.0 4.0 0.00 0.00 0.00 69 1016.5
20260901142523 87 227 1.0 8.0 0.00 0.00 0.00 68 1016.4
20260901142024 87 140 1.0 8.0 0.00 0.00 0.00 71 1016.4
20260901141546 87 195 1.0 6.0 0.00 0.00 0.00 73 1016.4
20260901141021 86 190 1.0 11.0 0.00 0.00 0.00 75 1016.4
20260901140516 86 163 0.0 11.0 0.00 0.00 0.00 73 1016.5
20260901140041 86 0 1.0 5.0 0.00 0.00 0.00 73 1016.5
20260901135522 86 9 1.0 7.0 0.00 0.00 0.00 75 1016.4
20260901135028 85 196 3.0 7.0 0.00 0.00 0.00 74 1016.4
20260901134541 85 182 1.0 5.0 0.00 0.00 0.00 71 1016.3
20260901134024 85 281 1.0 5.0 0.00 0.00 0.00 76 1016.4
20260901133521 84 150 1.0 5.0 0.00 0.00 0.00 78 1016.5
20260901133042 84 0 1.0 5.0 0.00 0.00 0.00 77 1016.5
20260901132521 84 0 2.0 6.0 0.00 0.00 0.00 78 1016.5
20260901132021 83 193 1.0 6.0 0.00 0.00 0.00 79 1016.6
20260901131542 82 155 2.0 5.0 0.00 0.00 0.00 81 1016.6
20260901131022 82 290 1.0 4.0 0.00 0.00 0.00 82 1016.7
20260901130520 81 166 0.0 4.0 0.00 0.00 0.00 83 1016.8
20260901130055 81 165 0.0 4.0 0.00 0.00 0.00 83 1016.8
20260901125522 81 0 1.0 3.0 0.00 0.00 0.00 84 1017.1
20260901125022 80 171 0.0 3.0 0.00 0.00 0.00 85 1017.1
20260901124541 80 178 0.0 3.0 0.00 0.00 0.00 86 1017.1
20260901124021 79 39 1.0 5.0 0.00 0.00 0.00 86 1017.2
20260901123523 79 179 0.0 5.0 0.00 0.00 0.00 87 1017.3
20260901123043 79 0 0.0 4.0 0.00 0.00 0.00 88 1017.3
20260901122521 78 134 1.0 4.0 0.00 0.00 0.00 89 1017.2
20260901122019 78 0 0.0 2.0 0.00 0.00 0.00 90 1017.2
20260901121538 78 360 0.0 4.0 0.00 0.00 0.00 90 1017.2
20260901121021 77 0 1.0 5.0 0.00 0.00 0.00 91 1017.1
20260901120520 77 0 0.0 5.0 0.00 0.00 0.00 93 1017.0
20260901120038 76 0 1.0 5.0 0.00 0.00 0.00 93 1017.0
20260901115523 76 0 0.0 4.0 0.00 0.00 0.00 95 1017.0
20260901115023 75 172 0.0 2.0 0.00 0.00 0.00 96 1016.8
20260901114541 75 0 0.0 2.0 0.00 0.00 0.00 97 1016.7
20260901114022 74 0 0.0 2.0 0.00 0.00 0.00 97 1016.7
20260901113520 74 0 0.0 1.0 0.00 0.00 0.00 97 1016.7
20260901113040 74 0 0.0 0.0 0.00 0.00 0.00 97 1016.7
20260901112519 74 0 0.0 0.0 0.00 0.00 0.00 97 1016.7
20260901112020 74 0 0.0 0.0 0.00 0.00 0.00 97 1016.8
20260901111540 74 0 0.0 0.0 0.00 0.00 0.00 96 1016.8
20260901111027 73 0 0.0 0.0 0.00 0.00 0.00 96 1016.8
20260901110524 73 0 0.0 1.0 0.00 0.00 0.00 96 1016.9
20260901110044 73 0 0.0 1.0 0.00 0.00 0.00 96 1016.8
20260901105524 73 0 0.0 1.0 0.00 0.00 0.00 96 1016.8
20260901105025 73 0 0.0 1.0 0.00 0.00 0.00 96 1016.8
20260901104548 73 0 0.0 0.0 0.00 0.00 0.00 96 1016.8
20260901104025 73 0 0.0 0.0 0.00 0.00 0.00 96 1016.7
20260901103524 73 0 0.0 0.0 0.00 0.00 0.00 96 1016.7
20260901103047 73 0 0.0 0.0 0.00 0.00 0.00 96 1016.7
20260901102523 73 0 0.0 1.0 0.00 0.00 0.00 96 1016.7
20260901102023 73 0 0.0 1.0 0.00 0.00 0.00 96 1016.6
20260901101545 73 0 0.0 1.0 0.00 0.00 0.00 96 1016.5
20260901101024 73 0 0.0 1.0 0.00 0.00 0.00 96 1016.5
20260901100526 73 0 0.0 1.0 0.00 0.00 0.00 96 1016.4
20260901100045 74 0 0.0 1.0 0.00 0.00 0.00 96 1016.4
20260901095525 74 0 0.0 1.0 0.00 0.00 0.00 96 1016.3
20260901095024 74 0 0.0 1.0 0.00 0.00 0.00 96 1016.5
20260901094545 74 0 0.0 1.0 0.00 0.00 0.00 96 1016.4
20260901094025 74 0 0.0 1.0 0.00 0.00 0.00 96 1016.3
20260901093523 74 102 0.0 1.0 0.00 0.00 0.00 96 1016.4
20260901093041 74 0 0.0 1.0 0.00 0.00 0.00 96 1016.6
20260901092521 74 0 0.0 1.0 0.00 0.00 0.00 96 1016.7
20260901092021 74 0 0.0 0.0 0.00 0.00 0.00 96 1016.7
20260901091549 74 0 0.0 1.0 0.00 0.00 0.00 96 1016.8
20260901091025 74 0 0.0 1.0 0.00 0.00 0.00 96 1016.8
20260901090527 74 0 0.0 1.0 0.00 0.00 0.00 96 1016.7
20260901090049 74 0 0.0 1.0 0.00 0.00 0.00 96 1016.8
20260901085524 74 0 0.0 1.0 0.00 0.00 0.00 96 1016.8
20260901085024 74 0 0.0 1.0 0.00 0.00 0.00 96 1016.8
20260901084604 74 0 0.0 1.0 0.00 0.00 0.00 96 1016.7
20260901084023 74 0 0.0 1.0 0.00 0.00 0.00 95 1016.6
20260901083523 74 0 0.0 1.0 0.00 0.00 0.00 95 1016.5
20260901083048 74 0 0.0 1.0 0.00 0.00 0.00 95 1016.6
20260901082525 74 0 0.0 1.0 0.00 0.00 0.00 95 1016.5
20260901082025 74 0 0.0 1.0 0.00 0.00 0.00 95 1016.5
20260901081550 74 0 0.0 1.0 0.00 0.00 0.00 95 1016.6
20260901081025 74 0 0.0 1.0 0.00 0.00 0.00 95 1016.7
20260901080525 74 102 0.0 1.0 0.00 0.00 0.00 95 1016.7
20260901080107 74 102 0.0 1.0 0.00 0.00 0.00 95 1016.6
20260901075519 74 0 0.0 1.0 0.00 0.00 0.00 95 1016.6
20260901075023 74 0 0.0 1.0 0.00 0.00 0.00 95 1016.6
20260901074540 74 0 0.0 1.0 0.00 0.00 0.00 95 1016.7
20260901074018 74 0 0.0 1.0 0.00 0.00 0.00 95 1016.7
20260901073521 74 0 0.0 0.0 0.00 0.00 0.00 95 1016.9
20260901073041 74 0 0.0 0.0 0.00 0.00 0.00 95 1017.0
20260901072521 74 0 0.0 0.0 0.00 0.00 0.00 94 1017.0
20260901072019 74 0 0.0 0.0 0.00 0.00 0.00 95 1017.0
20260901071542 74 0 0.0 0.0 0.00 0.00 0.00 95 1017.1
20260901071023 74 0 0.0 0.0 0.00 0.00 0.00 95 1017.1
20260901070523 74 0 0.0 0.0 0.00 0.00 0.00 94 1017.1
20260901070042 75 0 0.0 0.0 0.00 0.00 0.00 94 1017.2
20260901065519 75 0 0.0 0.0 0.00 0.00 0.00 95 1017.3
20260901065023 75 0 0.0 0.0 0.00 0.00 0.00 95 1017.3
20260901064541 75 0 0.0 1.0 0.00 0.00 0.00 95 1017.4
20260901064021 75 0 0.0 1.0 0.00 0.00 0.00 95 1017.4
20260901063520 74 0 0.0 1.0 0.00 0.00 0.00 95 1017.4
20260901063042 74 0 0.0 1.0 0.00 0.00 0.00 95 1017.5
20260901062524 74 0 0.0 1.0 0.00 0.00 0.00 94 1017.4
20260901062024 74 0 0.0 0.0 0.00 0.00 0.00 94 1017.4
20260901061551 74 0 0.0 1.0 0.00 0.00 0.00 94 1017.3
20260901061023 74 0 0.0 1.0 0.00 0.00 0.00 94 1017.3
20260901060519 74 0 0.0 1.0 0.00 0.00 0.00 94 1017.4
20260901060046 74 0 0.0 1.0 0.00 0.00 0.00 94 1017.5
20260901055524 74 0 0.0 1.0 0.00 0.00 0.00 94 1017.4
20260901055024 74 0 0.0 0.0 0.00 0.00 0.00 94 1017.5
20260901054542 74 0 0.0 0.0 0.00 0.00 0.00 94 1017.5
20260901054023 74 0 0.0 0.0 0.00 0.00 0.00 94 1017.6
20260901053524 74 0 0.0 0.0 0.00 0.00 0.00 93 1017.7
20260901053059 74 0 0.0 0.0 0.00 0.00 0.00 93 1017.6
20260901052521 74 0 0.0 0.0 0.00 0.00 0.00 93 1017.7
20260901052022 74 0 0.0 0.0 0.00 0.00 0.00 93 1017.7
20260901051541 74 0 0.0 0.0 0.00 0.00 0.00 93 1017.7
20260901051020 74 0 0.0 0.0 0.00 0.00 0.00 93 1017.8
20260901050524 74 0 0.0 0.0 0.00 0.00 0.00 93 1017.9
20260901050051 74 0 0.0 0.0 0.00 0.00 0.00 93 1017.9
20260901045522 74 0 0.0 1.0 0.00 0.00 0.00 93 1018.0
20260901045023 74 0 0.0 1.0 0.00 0.00 0.00 93 1018.1
20260901044540 74 0 0.0 1.0 0.00 0.00 0.00 93 1018.1
20260901044026 74 0 0.0 1.0 0.00 0.00 0.00 93 1018.2
20260901043524 74 0 0.0 1.0 0.00 0.00 0.00 93 1018.2
20260901043050 74 0 0.0 0.0 0.00 0.00 0.00 93 1018.2
20260901042524 74 0 0.0 0.0 0.00 0.00 0.00 93 1018.3
20260901042024 74 0 0.0 0.0 0.00 0.00 0.00 93 1018.2
20260901041548 75 0 0.0 1.0 0.00 0.00 0.00 93 1018.2
20260901041024 75 0 0.0 1.0 0.00 0.00 0.00 93 1018.2
20260901040525 75 102 0.0 0.0 0.00 0.00 0.00 93 1018.2
20260901040047 75 0 0.0 0.0 0.00 0.00 0.00 92 1018.3
20260901035524 75 0 0.0 0.0 0.00 0.00 0.00 92 1018.3
20260901035024 75 0 0.0 0.0 0.00 0.00 0.00 92 1018.2
20260901034541 75 0 0.0 0.0 0.00 0.00 0.00 92 1018.2
20260901034019 75 0 0.0 0.0 0.00 0.00 0.00 92 1018.3
20260901033525 75 0 0.0 0.0 0.00 0.00 0.00 92 1018.2
20260901033055 75 0 0.0 0.0 0.00 0.00 0.00 92 1018.3
20260901032528 75 0 0.0 0.0 0.00 0.00 0.00 91 1018.4
20260901032025 75 0 0.0 0.0 0.00 0.00 0.00 91 1018.2
20260901031606 75 0 0.0 0.0 0.00 0.00 0.00 91 1018.2
20260901031024 75 0 0.0 1.0 0.00 0.00 0.00 90 1018.2
20260901030522 75 0 0.0 1.0 0.00 0.00 0.00 90 1018.2
20260901030047 76 0 0.0 0.0 0.00 0.00 0.00 90 1018.3
20260901025523 76 0 0.0 0.0 0.00 0.00 0.00 90 1018.3
20260901025023 76 0 0.0 0.0 0.00 0.00 0.00 90 1018.4
20260901024542 76 0 0.0 0.0 0.00 0.00 0.00 90 1018.4
20260901024022 76 0 0.0 1.0 0.00 0.00 0.00 90 1018.4
20260901023526 76 0 0.0 1.0 0.00 0.00 0.00 89 1018.4
20260901023043 76 0 0.0 1.0 0.00 0.00 0.00 88 1018.2
20260901022528 76 0 0.0 0.0 0.00 0.00 0.00 88 1018.2
20260901022026 77 0 0.0 0.0 0.00 0.00 0.00 87 1018.1
20260901021547 77 0 0.0 0.0 0.00 0.00 0.00 87 1018.0
20260901021025 77 0 0.0 0.0 0.00 0.00 0.00 86 1018.1
20260901020525 77 0 0.0 0.0 0.00 0.00 0.00 86 1018.3
20260901020051 77 0 0.0 0.0 0.00 0.00 0.00 86 1018.1
20260901015521 77 0 0.0 0.0 0.00 0.00 0.00 86 1018.1
20260901015025 77 0 0.0 0.0 0.00 0.00 0.00 86 1018.1
20260901014549 77 0 0.0 0.0 0.00 0.00 0.00 86 1018.0
20260901014029 78 0 0.0 0.0 0.00 0.00 0.00 86 1018.0
20260901013526 78 0 0.0 1.0 0.00 0.00 0.00 85 1017.9
20260901013048 78 0 0.0 2.0 0.00 0.00 0.00 85 1017.9
20260901012523 78 101 0.0 2.0 0.00 0.00 0.00 85 1018.0
20260901012027 78 101 0.0 1.0 0.00 0.00 0.00 84 1018.0
20260901011541 78 0 0.0 0.0 0.00 0.00 0.00 84 1018.0
20260901011024 78 0 0.0 0.0 0.00 0.00 0.00 84 1018.0
20260901010525 78 0 0.0 0.0 0.00 0.00 0.00 84 1018.1
20260901010047 78 0 0.0 0.0 0.00 0.00 0.00 84 1018.1
20260901005525 78 0 0.0 0.0 0.00 0.00 0.00 83 1018.1
20260901005024 78 0 0.0 0.0 0.00 0.00 0.00 83 1017.9
20260901004550 79 0 0.0 0.0 0.00 0.00 0.00 83 1017.9
20260901004023 79 0 0.0 0.0 0.00 0.00 0.00 83 1017.9
20260901003524 79 0 0.0 0.0 0.00 0.00 0.00 83 1017.8
20260901003042 79 0 0.0 0.0 0.00 0.00 0.00 82 1017.8
20260901002523 80 0 0.0 0.0 0.00 0.00 0.00 82 1017.8
20260901002026 80 0 0.0 0.0 0.00 0.00 0.00 82 1017.9
20260901001559 80 0 0.0 0.0 0.00 0.00 0.00 81 1017.8
20260901001024 80 0 0.0 1.0 0.00 0.00 0.00 80 1017.8
20260901000525 80 0 0.0 2.0 0.00 0.00 0.00 80 1017.7
20260901000047 80 0 0.0 2.0 0.00 0.00 0.00 80 1017.7
20260831235525 80 0 0.0 2.0 0.00 0.00 0.00 79 1017.7
20260831235024 81 0 0.0 2.0 0.00 0.00 0.00 79 1017.7
20260831234547 81 118 0.0 2.0 0.00 0.00 0.00 79 1017.7
20260831234026 81 163 0.0 2.0 0.00 0.00 0.00 78 1017.7
20260831233526 81 148 0.0 4.0 0.00 0.00 0.00 79 1017.7